[Date Prev][Date Next][Thread Prev][Thread Next] - [Date Index][Thread Index][Author Index]
2 Line ISS Keps 7-29
- Subject: [sarex] 2 Line ISS Keps 7-29
- From: "Dave Larsen PhD" <doc@xxxxxxxxxxx>
- Date: Mon, 29 Jul 2002 03:01:41 -0700
ISS
1 25544U 98067A 02210.13643943 .00020979 00000-0 26450-3 0 7072
2 25544 51.6369 202.3264 0009119 48.3472 38.9538 15.59517940210576
----
Via the sarex mailing list at AMSAT.ORG courtesy of AMSAT-NA.
To unsubscribe, send "unsubscribe sarex" to Majordomo@amsat.org
AMSAT Home